Location: ???? ????
(31.2831°N, 45.5190°E)
Time: 08:37:30
(UTC+00:00)

Nadezhda 3 Rocket - Pass Details

Date: 24 February 2021
Orbit: 957 x 999 km, 82.9° (Epoch: 15 April)

Event Time Altitude Azimuth Distance (km) Brightness Sun altitude
Rises 16:14:40 0° 2° (N) 3,714 7.0 -18.3°
Reaches altitude 10° 16:17:20 10° 9° (N) 2,765 6.3 -18.9°
Maximum altitude 16:23:22 44° 80° (E) 1,346 4.3 -20.2°
Enters shadow 16:27:18 21° 142° (SE) 2,074 5.4 -21.0°
